Location: New Frontier Mobile Home Park
(32.8448°N, 116.9675°W)
Time: 21:44:57
(UTC+00:00)

Cosmos 841 Rocket - Pass Details

Date: 14 July 2020
Orbit: 747 x 772 km, 74.0° (Epoch: 05 August)

Event Time Altitude Azimuth Distance (km) Brightness Sun altitude
Rises 11:14:17 0° 350° (N) 3,205 7.2 -17.6°
Reaches altitude 10° 11:16:44 10° 356° (N) 2,280 6.4 -17.2°
Maximum altitude 11:21:44 48° 70° (ENE) 977 4.5 -16.4°
Drops below altitude 10° 11:26:44 10° 145° (SE) 2,283 5.9 -15.6°
Sets 11:29:10 0° 151° (SSE) 3,209 6.6 -15.2°
